Starlink 3399

operational
NORAD ID: 51121 Int'l Des: 2022-005 Owner: SPXS Country: US Constellation: starlink
LEOCIRCULAR

About Starlink 3399

Description loading...

Live Position

Loading 3D Globe...

Upcoming Passes

Altitude History

Altitude vs Time

uPlot chart will show altitude changes over time

Two-Line Element Set

1 51121U 22005T 25257.60447764 -.00002525 00000-0 -14070-3 0 9999
2 51121 53.2189 359.6090 0001132 90.8738 269.2384 15.08818965202294
Epoch: Sep 14, 2025 • Age: 18 hours

Current Status

Altitude 550.1 km
Velocity 7.59 km/s
Sub-Earth Point -31.67°S, 74.34°E
Launch Date Jan 19, 2022
Age 3.6 years
Type internet

Technical Details

Classification Payload
Mass 297.00 kg
Dry Mass 275.00 kg
Total Mass 297.00 kg
Length 0.20 m
Diameter 2.80 m
Span 9.00 m
Shape Box + pan
Manufacturer SPXS
Bus Type Starlink
Phase Status In Orbit
Owner/State SPXS/US

Large Constellations

Loading constellations...